Weather History for Wallops Island, VA

Change the Weather History Date:

Wednesday, October 10, 2012

  Actual Average Record
Temperature  
Mean Temperature 62 °F 61 °F  
Max Temperature 70 °F 70 °F 83 °F (1990)
Min Temperature 54 °F 52 °F 38 °F (2000)
Degree Days  
Heating Degree Days 3    
Month to date heating degree days 34  
Since 1 July heating degree days 44  
Cooling Degree Days 0    
Month to date cooling degree days 51  
Year to date cooling degree days 1600  
Growing Degree Days 12 (Base 50)    
Moisture  
Dew Point 54 °F    
Average Humidity 70    
Maximum Humidity 87    
Minimum Humidity 53    
Precipitation  
Precipitation 0.00 in 0.10 in 0.67 in (2013)
Month to date precipitation 1.45 1.04  
Year to date precipitation 35.67 32.41  
Sea Level Pressure  
Sea Level Pressure 29.98 in    
Wind  
Wind Speed 6 mph (NW)    
Max Wind Speed 17 mph    
Max Gust Speed 24 mph    
Visibility 5 miles    
Events Fog    
T = Trace of Precipitation, MM = Missing Value Source: NWS Daily Summary

Daily Weather History Graph

Daily Weather History Graph

Search for Another Location

Airport:

Trip Planner

Search our weather history database for the weather conditions in past years. The results will help you decide how hot, cold, wet, or windy it might be!

Date:

Astronomy

Oct. 10, 2012 Rise Set
Actual Time 7:06 AM EDT 6:30 PM EDT
Civil Twilight 6:39 AM EDT 6:57 PM EDT
Nautical Twilight 6:09 AM EDT 7:27 PM EDT
Astronomical Twilight 5:38 AM EDT 7:57 PM EDT
Moon 1:45 AM EDT (10/10) 3:27 PM EDT (10/10)
Length of Visible Light 12h 17m
Length of Day
11h 24m
Waning Crescent, 27% of the Moon is Illuminated
Oct 10
Waning Crescent
Oct 15
New
Oct 21
First Quarter
Oct 29
Full
Nov 6
Last Quarter

Hourly Weather History & Observations

Time (EDT) Temp. Dew Point Humidity Pressure Visibility Wind Dir Wind Speed Gust Speed Precip Events Conditions
12:44 AM 60.1 °F 55.0 °F 83% 30.03 in 2.0 mi North 5.8 mph - N/A   Haze
12:54 AM 60.1 °F 55.0 °F 83% 30.02 in 2.0 mi North 5.8 mph - N/A   Haze
1:15 AM 60.1 °F 55.0 °F 83% 30.03 in 1.2 mi NNE 4.6 mph - N/A   Haze
1:25 AM 59.0 °F 55.0 °F 87% 30.03 in 1.0 mi North 4.6 mph - N/A   Mist
1:54 AM 59.0 °F 55.0 °F 87% 30.02 in 1.0 mi NNE 3.5 mph - N/A   Mist
2:07 AM 59.0 °F 55.0 °F 87% 30.02 in 0.8 mi North 3.5 mph - N/A   Mist
2:54 AM 59.0 °F 55.0 °F 87% 29.99 in 0.8 mi North 4.6 mph - N/A   Mist
3:07 AM 59.0 °F 54.0 °F 83% 29.99 in 0.5 mi North 3.5 mph - N/A   Haze
3:54 AM 59.0 °F 55.0 °F 87% 29.99 in 0.2 mi Calm Calm - N/A Fog Fog
4:54 AM 59.0 °F 55.0 °F 87% 29.99 in 0.2 mi NW 4.6 mph - N/A Fog Fog
5:31 AM 59.0 °F 54.0 °F 83% 29.99 in 1.0 mi NW 6.9 mph - N/A   Haze
5:39 AM 59.0 °F 54.0 °F 83% 29.99 in 1.5 mi NW 6.9 mph - N/A   Haze
5:54 AM 59.0 °F 54.0 °F 83% 29.99 in 1.0 mi NW 5.8 mph - N/A   Haze
6:05 AM 59.0 °F 54.0 °F 83% 29.99 in 1.5 mi NW 5.8 mph - N/A   Haze
6:11 AM 59.0 °F 55.4 °F 88% 30.00 in 2.5 mi NNW 4.6 mph - N/A   Overcast
6:20 AM 59.0 °F 55.0 °F 87% 30.00 in 4.0 mi WNW 3.5 mph - N/A   Overcast
6:42 AM 59.0 °F 54.0 °F 83% 30.00 in 2.0 mi NNW 4.6 mph - N/A   Haze
6:54 AM 59.0 °F 55.0 °F 87% 29.99 in 1.2 mi Calm Calm - N/A   Overcast
7:01 AM 59.0 °F 55.0 °F 87% 30.00 in 0.8 mi NNW 3.5 mph - N/A   Overcast
7:12 AM 59.0 °F 55.0 °F 87% 30.00 in 0.5 mi NNW 3.5 mph - N/A Fog Fog
7:27 AM 59.0 °F 55.0 °F 87% 30.00 in 1.0 mi NW 3.5 mph - N/A   Mist
7:33 AM 59.0 °F 55.0 °F 87% 30.00 in 2.0 mi Calm Calm - N/A   Overcast
7:38 AM 59.0 °F 54.0 °F 83% 30.00 in 3.0 mi NW 3.5 mph - N/A   Haze
7:54 AM 59.0 °F 54.0 °F 83% 30.00 in 2.5 mi NNW 3.5 mph - N/A   Haze
8:05 AM 59.0 °F 55.0 °F 87% 30.00 in 1.8 mi NNW 3.5 mph - N/A   Overcast
8:08 AM 59.0 °F 55.0 °F 87% 30.01 in 0.8 mi NW 3.5 mph - N/A   Overcast
8:16 AM 59.0 °F 55.0 °F 87% 30.01 in 0.5 mi Calm Calm - N/A Fog Fog
8:25 AM 59.0 °F 55.0 °F 87% 30.01 in 1.0 mi NW 3.5 mph - N/A   Overcast
8:33 AM 59.0 °F 55.0 °F 87% 30.01 in 2.0 mi Calm Calm - N/A   Overcast
8:45 AM 60.1 °F 55.0 °F 83% 30.01 in 3.0 mi Calm Calm - N/A   Haze
8:54 AM 60.1 °F 55.0 °F 83% 30.00 in 4.0 mi NW 3.5 mph - N/A   Haze
9:26 AM 61.0 °F 55.9 °F 83% 30.00 in 6.0 mi NW 4.6 mph - N/A   Haze
9:43 AM 62.1 °F 55.9 °F 80% 30.00 in 7.0 mi WNW 5.8 mph - N/A   Overcast
9:54 AM 63.0 °F 55.9 °F 78% 29.99 in 8.0 mi NW 8.1 mph - N/A   Overcast
10:21 AM 66.0 °F 57.0 °F 73% 30.00 in 10.0 mi WNW 5.8 mph - N/A   Mostly Cloudy
10:52 AM 64.4 °F 55.4 °F 73% 29.99 in 10.0 mi West 11.5 mph - N/A   Mostly Cloudy
10:54 AM 64.9 °F 55.0 °F 70% 29.98 in 10.0 mi West 11.5 mph - N/A   Overcast
11:45 AM 64.0 °F 53.1 °F 67% 29.98 in 10.0 mi WNW 10.4 mph - N/A   Mostly Cloudy
11:54 AM 64.9 °F 53.1 °F 65% 29.97 in 10.0 mi WNW 10.4 mph - N/A   Mostly Cloudy
12:54 PM 66.0 °F 52.0 °F 60% 29.95 in 10.0 mi West 10.4 mph - N/A   Mostly Cloudy
1:10 PM 64.9 °F 51.1 °F 61% 29.95 in 10.0 mi NW 9.2 mph - N/A   Overcast
1:18 PM 64.9 °F 51.1 °F 61% 29.95 in 10.0 mi WNW 12.7 mph - N/A   Overcast
1:54 PM 68.0 °F 52.0 °F 56% 29.93 in 10.0 mi WNW 9.2 mph - N/A   Mostly Cloudy
2:34 PM 68.0 °F 52.0 °F 56% 29.92 in 10.0 mi West 10.4 mph - N/A   Mostly Cloudy
2:54 PM 70.0 °F 52.0 °F 53% 29.91 in 10.0 mi NW 6.9 mph - N/A   Mostly Cloudy
3:10 PM 66.9 °F 48.9 °F 52% 29.91 in 10.0 mi WNW 11.5 mph - N/A   Scattered Clouds
3:54 PM 66.0 °F 50.0 °F 56% 29.89 in 10.0 mi NW 10.4 mph - N/A   Scattered Clouds
4:54 PM 66.9 °F 51.1 °F 57% 29.90 in 10.0 mi West 6.9 mph - N/A   Clear
5:54 PM 64.9 °F 51.1 °F 61% 29.91 in 10.0 mi West 5.8 mph - N/A   Clear
6:54 PM 59.0 °F 52.0 °F 78% 29.93 in 10.0 mi Calm Calm - N/A   Clear
7:54 PM 57.9 °F 51.1 °F 78% 29.96 in 10.0 mi Calm Calm - N/A   Clear
8:54 PM 55.0 °F 48.9 °F 80% 29.96 in 10.0 mi Calm Calm - N/A   Clear
9:54 PM 55.9 °F 50.0 °F 80% 29.98 in 10.0 mi WNW 3.5 mph - N/A   Clear
10:54 PM 59.0 °F 50.0 °F 72% 29.99 in 10.0 mi West 3.5 mph - N/A   Mostly Cloudy
11:54 PM 60.1 °F 48.0 °F 64% 30.04 in 10.0 mi North 9.2 mph - N/A   Overcast